www.pogodaiklimat.ru
ПОГОДА в Хониара аэропорту

Архив погоды в Хониара аэропорту (Соломоновы Острова)

Время
(UTC), дата
03 7.04
06 7.04
09 7.04
12 7.04
15 7.04
18 7.04
21 7.04
00 8.04
03 8.04
06 8.04
09 8.04
12 8.04
15 8.04
18 8.04
21 8.04
00 9.04
03 9.04
09 9.04
12 9.04
15 9.04
18 9.04
21 9.04
00 10.04
03 10.04
06 10.04
09 10.04
12 10.04
15 10.04
18 10.04
21 10.04
00 11.04
03 11.04
06 11.04
09 11.04
12 11.04
15 11.04
18 11.04
21 11.04
00 12.04
03 12.04
06 12.04
09 12.04
12 12.04
15 12.04
18 12.04
21 12.04
00 13.04
03 13.04
06 13.04
09 13.04
12 13.04
15 13.04
18 13.04
21 13.04
Ветер
(напр.,м/с)
Видим. Явления Облачность Т
(С)
Тd
(С)
f
(%)
Тe
(С)
Тes
(С)
Комфортность P
(гПа)
Po
(гПа)
Тmin
(С)
Tmax
(С)
R
(мм)
R24
(мм)
S
(см)
С 4 20 км осадки на расстоянии {ливн. дождь} 8/4 500 м
[Cb cap Ac trans Ci ing]
+31.0 +26.1 75 +46 +51 очень душно 1006.2 1005.2
В 1 4000 м слаб. дождь {ливн. дождь} 10/9 450 м
[Cb cap As op]
+25.1 +25.0 99 +36 +36 очень душно 1006.3 1005.3 +35.1 23
ЮВ 3 10 км слаб. ливневой дождь 10/10 450 м
[Cb cap]
+25.4 +24.9 97 +36 +36 очень душно 1008.6 1007.6
штиль 0 10 км осадки на расстоянии {ливн. дождь, дождь} 10/8 450 м
[Cb cap As op]
+25.0 +25.0 100 +36 +36 очень душно 1009.5 1008.5 +31.5 7
штиль 0 20 км мгла {морось} 6/3 420 м
[Cu Sc Ac trans Cs]
+24.8 +24.7 99 +35 +35 очень душно 1007.3 1006.3
Ю 3 20 км осадки на расстоянии {ливн. дождь, дождь} 8/6 180 м
[Cu Sc Ac As Cs]
+25.2 +24.7 97 +35 +35 очень душно 1007.7 1006.7 4
Ю 1 20 км осадки на расстоянии {морось} 9/5 480 м
[Cb cap Ac As Cs]
+26.5 +24.9 91 +38 +38 очень душно 1008.8 1007.8
В 3 20 км мгла {морось} 9/3 540 м
[Cb cap Cs]
+30.3 +25.3 75 +44 +46 очень душно 1009.8 1008.8 +24.4 33 32.6
СВ 3 20 км мгла 6/3 600 м
[Cb cap Ac trans Cs]
+31.6 +27.9 81 +52 +58 очень душно 1007.2 1006.2
В 2 20 км мгла 8/3 570 м
[Cb cap Ac trans Cs]
+30.8 +26.6 78 +47 +48 очень душно 1006.7 1005.7
Ю 1 20 км осадки на расстоянии 10/5 480 м
[Cb cap Ac trans Cs]
+27.1 +26.4 96 +41 +41 очень душно 1008.7 1007.7
штиль 0 20 км мгла 10/1 450 м
[Cu med, cong Cs]
+26.1 +25.3 95 +38 +38 очень душно 1009.9 1008.9 +32.4
Ю 1 20 км мгла 6/1 450 м
[Cu hum Cs]
+25.3 +24.9 98 +36 +36 очень душно 1008.3 1007.3
штиль 0 20 км мгла 5/1 420 м
[Cu hum Ac trans Cs]
+24.8 +24.3 97 +34 +34 очень душно 1007.4 1006.4
ЮВ 2 20 км мгла 4/1 480 м
[Cu med, cong Ac und Ci fib]
+28.0 +25.3 85 +41 +43 очень душно 1008.8 1007.8
В 3 20 км мгла 4/3 600 м
[Cu med, cong Ci]
+32.0 +27.2 76 +50 +60 очень душно 1009.5 1008.5 +24.4 0.0
В 4 20 км осадки на расстоянии 3/3 600 м
[Cb cap Ci ing]
+32.0 +28.9 84 +55 +65 очень душно 1006.7 1005.7
ЮВ 1 20 км мгла 6/1 420 м
[Cu Sc Cs]
+27.5 +26.7 95 +42 +42 очень душно 1008.8 1007.8
Ю 2 20 км мгла 4/1 420 м
[Cu Sc Cs]
+26.3 +25.2 94 +38 +38 очень душно 1009.7 1008.7 +32.5
Ю 2 20 км мгла 3/1 400 м
[Cu med, cong Cs]
+25.5 +25.1 98 +37 +37 очень душно 1008.0 1007.0
ЮВ 1 20 км мгла 1/1 400 м
[Cu med, cong Ci fib]
+24.5 +25.1 100 +34 +34 очень душно 1007.5 1006.5
Ю 3 20 км 4/1 450 м
[Cb calv Ci fib]
+26.9 +24.0 84 +37 +40 очень душно 1009.2 1008.2
СВ 2 20 км 3/3 600 м
[Cu med, cong Ci fib]
+31.5 +26.5 75 +48 +60 очень душно 1009.5 1008.5 +24.0
СВ 3 20 км осадки на расстоянии 4/3 630 м
[Cb calv Ci ing]
+32.1 +26.3 72 +49 +59 очень душно 1007.3 1006.3
З 1 20 км в посл. час гроза 6/3 570 м
[Cb calv Cs]
+30.7 +25.6 74 +45 +46 очень душно 1007.2 1006.2
Ю 1 10 км 4/1 420 м
[Cb calv Cs]
+27.9 +26.2 90 +42 +42 очень душно 1009.3 1008.3
ЮВ 2 20 км мгла 8/8 450 м
[Cb cap]
+26.8 +25.9 95 +40 +40 очень душно 1010.6 1009.6 +32.5
ЮВ 1 20 км 4/1 420 м
[Cu Sc Ci fib]
+25.9 +25.4 97 1009.4 1008.4
штиль 0 20 км 3/1 420 м
[Cu Sc Ci fib]
+25.3 +24.4 95 +35 +35 очень душно 1008.2 1007.2
штиль 0 20 км 5/1 450 м
[Cu med, cong Ac trans Cs]
+27.0 +25.1 89 +39 +41 очень душно 1009.6 1008.6
В 3 20 км мгла 4/3 600 м
[Cu med, cong Cs]
+31.9 +25.9 71 +47 +57 очень душно 1009.0 1008.0 +24.6
В 4 20 км осадки на расстоянии 4/4 570 м
[Cb cap Ci ing]
+31.0 +26.8 78 +48 +57 очень душно 1006.4 1005.4
ЮВ 2 20 км осадки на расстоянии 8/4 540 м
[Cb cap Ac trans Ci ing]
+28.0 +25.9 88 +42 +42 очень душно 1006.9 1005.9
Ю 1 20 км 3/1 450 м
[Cb cap Ci ing]
+26.5 +25.1 92 +38 +38 очень душно 1008.9 1007.9
Ю 1 20 км 5/1 420 м
[Cb cap Ac und Cs]
+25.8 +24.9 95 +37 +37 очень душно 1009.6 1008.6
Ю 2 20 км 4/1 360 м
[Cu med, cong Ac cuf Ci fib]
+24.5 +24.1 98 +34 +34 очень душно 1008.4 1007.4
Ю 3 20 км 1/1 360 м
[Cu hum Ci fib]
+24.4 +23.6 95 +33 +33 очень душно 1007.6 1006.6
Ю 1 20 км 9/1 420 м
[Cu hum Cs]
+25.0 +23.5 91 +34 +34 очень душно 1008.7 1007.7
В 2 20 км 9/1 540 м
[Cu med, cong Cs]
+30.5 +23.4 66 +41 +43 очень душно 1009.6 1008.6 +24.4
СВ 3 20 км осадки на расстоянии 9/1 600 м
[Cb cap Cs]
+31.4 +26.4 75 +48 +50 очень душно 1007.9 1006.9
СВ 1 20 км осадки на расстоянии 9/3 540 м
[Cb cap Cs]
+30.0 +25.6 77 +44 +46 очень душно 1007.8 1006.8
штиль 0 20 км осадки на расстоянии 6/3 480 м
[Cb cap Cs]
+27.4 +26.2 93 +41 +41 очень душно 1008.5 1007.5
штиль 0 20 км мгла 9/3 450 м
[Cu Sc Ac cuf Cs]
+25.1 +24.3 95 +35 +35 очень душно 1010.2 1009.2 +32.0
Ю 2 20 км 3/1 450 м
[Cu med, cong Ci fib]
+24.4 +23.8 96 +33 +33 очень душно 1008.4 1007.4
Ю 2 20 км 3/1 420 м
[Cu med, cong Cs]
+23.5 +23.2 98 +31 +31 очень душно 1008.9 1007.9
Ю 2 20 км 3/1 450 м
[Cu med, cong Cs]
+25.7 +23.5 88 +35 +38 очень душно 1010.8 1009.8
В 3 20 км мгла 4/1 570 м
[Cu med, cong Cs]
+31.8 +25.9 71 +47 +57 очень душно 1011.3 1010.3 +23.0
С 4 20 км мгла 4/4 600 м
[Cb cap Cs]
+32.0 +26.4 72 +48 +57 очень душно 1009.0 1008.0
С 2 20 км мгла 8/3 570 м
[Cb cap Ac trans Cs]
+31.3 +25.4 71 +46 +46 очень душно 1009.2 1008.2
штиль 0 20 км в посл. час морось 8/6 480 м
[Cb cap Cs]
+28.0 +26.6 92 +43 +43 очень душно 1011.4 1010.4
штиль 0 20 км мгла 4/1 450 м
[Cu med, cong Cs]
+26.0 +25.6 98 +38 +38 очень душно 1011.9 1010.9 +32.5 0.2
штиль 0 20 км 4/1 420 м
[Cu hum Cs]
+25.1 +24.6 97 +35 +35 очень душно 1010.3 1009.3
штиль 0 20 км 1/1 420 м
[Cu hum]
+24.5 +24.2 98 +34 +34 очень душно 1009.9 1008.9
штиль 0 20 км 4/1 450 м
[Cu hum Ci sp]
+26.0 +24.6 92 +37 +39 очень душно 1011.3 1010.3 +24.4
Местоположение метеостанции Хониара аэропорт (Соломоновы Острова): широта -9.42 долгота 160.05 высота над уровнем моря 9 м.
В архиве по умолчанию представлена погода в Хониара аэропорту за последнюю неделю. Архивные данные за месяц целиком и за предыдущие месяцы, начиная с января 2011 года, Вы можете получить, выбрав интересующий диапазон дат из раскрывающегося списка и нажав кнопку "Найти!".
*Определитесь, кто Вы:
Внимание! Время в таблицах - всемирное. Для получения местного времени необходимо прибавить поправку, которая равна 11 ч.
Некоторые строки с данными для отдельных станций могут быть выделены курсивом. Это означает, что фактические данные отсутствуют по различным причинам, а приведенные значения являются расчетными модельными данными для данного пункта наблюдений.
Смотрите также архив погоды в соседних городах и на ближайших метеорологических станциях:
Партнеры нашего сайта:      
Пояснения к столбцам:
  • Ветер - указаны скорость ветра в м/с - средняя за 10 мин, порывы в срок и между сроками (в фигурных скобках) и направление, откуда дует ветер: С - северный,
  • СВ - северо-восточный, В - восточный, ЮВ - юго-восточный, Ю - южный, ЮЗ - юго-западный, З - западный, СЗ - северо-западный.
  • Видимость - горизонтальная дальность видимости в метрах или километрах. При видимости от 1 до 10 км при отсутствии осадков обычно наблюдается дымка, при ухудшении видимости до 1 км и менее - туман. В сухую погоду видимость может ухудшаться дымом, пылью или мглою.
  • Явления - указаны атмосферные явления, наблюдавшиеся в срок или в последний час перед сроком; фигурными скобками обозначены явления, наблюдавшиеся между сроками (за 1-3 часа до срока); квадратными скобками обозначены град или гололедные отложения с указанием их диаметра в мм.
  • Облачность - указаны через наклонную черту общая и нижняя облачность в баллах и высота нижней границы облаков в метрах; квадратными скобками обозначены формы облаков: Ci - перистые, Cs - перисто-слоистые, Cc - перисто-кучевые, Ac - высококучевые, As - высокослоистые, Sc - слоисто-кучевые, Ns - слоисто-дождевые, Cu - кучевые, Cb - кучево-дождевые. Подробнее классификацию облаков см. в Атласе облаков (PDF).
  • T - Температура воздуха - температура, измеренная на высоте 2 м над землей.
  • Td - Температура точки росы - температура, при понижении до которой содержащийся в воздухе водяной пар достигнет насыщения.
  • f - Относительная влажность воздуха - влажноcть воздуха, измеренная на высоте 2 м над землей.
  • Te - Эффективная температура - температура, которую ощущает одетый по сезону человек в тени. Характеристика душности погоды. При расчете учитывается влияние влажности воздуха и скорости ветра на теплоощущения человека.
  • Tes - Эффективная температура на солнце - температура, которую ощущает человек, с поправкой на солнечный нагрев. Характеристика знойности погоды. Зависит от высоты солнца над горизонтом, облачности и скорости ветра. Ночью, в пасмурную погоду, а также при ветре 12 м/с и более поправка равна нулю.
  • P - Атмосферное давление - приведенное к уровню моря атмосферное давление.
  • Po - Атмосферное давление - измеренное на уровне метеостанции атмосферное давление.
  • Tmin - Минимальная температура - минимум температуры воздуха на высоте 2 м над землей.
  • Tmax - Максимальная температура - максимум температуры воздуха на высоте 2 м над землей.
  • R - Количество осадков - Количество выпавших осадков за период времени, мм. При наведении курсора мыши на число - период времени, за который выпало указанное количество осадков.
  • R24 - Количество осадков - Количество выпавших осадков за 24 часа, мм.
  • S - Снежный покров - Высота снежного покрова, см. При наведении курсора мыши на число - состояние снежного покрова и степень покрытия местности в баллах.